Tracking 29892 objects as of 21-Nov-2024
HD Live streaming from Space Station
objects crossing your sky now

CZ-4 DEB

Track CZ-4 DEB now!
10-day predictions


NORAD ID: 35376
Int'l Code: 2006-046J
Perigee: 547.1 km
Apogee: 730.4 km
Inclination: 97.8 °
Period: 97.3 minutes
Semi major axis: 7009 km
RCS: 0.0012 m2 (small)
Launch date: October 23, 2006
Source: People's Republic of China (PRC)
Launch site: Taiyaun Space Center, China (TSC)

Note: This is SATELLITE DEBRIS
Your satellite tracking list
Your tracking list is empty




NASA's NSSDC Master Catalog

Two Line Element Set (TLE):
1 35376U 06046J   24325.61057961  .00019602  00000-0  22816-2 0  9990
2 35376  97.8014 254.3789 0130736 216.7938 269.5639 14.79287472954749
Source of the keplerian elements: AFSPC